This is the latest recevied weather packets stored in our database for station/object PA3FNT-10. If no packets are shown the sender has not sent any weather packets the latest 1 day(s).
| Time | Temp. | Humidity | Pressure | Rain* | Wind** | Luminosity | Snow |
|---|---|---|---|---|---|---|---|
| 1777762794 | 12.78° C | 63% | 1013.4 hPa | - | - | - | - |
| 1777761894 | 12.78° C | 62% | 1013.6 hPa | - | - | - | - |
| 1777760994 | 13.33° C | 61% | 1013.6 hPa | - | - | - | - |
| 1777760094 | 13.33° C | 60% | 1013.9 hPa | - | - | - | - |
| 1777759194 | 13.33° C | 58% | 1013.6 hPa | - | - | - | - |
| 1777758293 | 12.78° C | 58% | 1013.4 hPa | - | - | - | - |
| 1777756493 | 12.22° C | 56% | 1013.8 hPa | - | - | - | - |
| 1777755591 | 12.22° C | 56% | 1013.8 hPa | - | - | - | - |
| 1777754691 | 12.22° C | 54% | 1013.9 hPa | - | - | - | - |
| 1777753789 | 12.22° C | 54% | 1014.3 hPa | - | - | - | - |
| 1777752889 | 12.78° C | 53% | 1014.4 hPa | - | - | - | - |
| 1777751989 | 13.33° C | 52% | 1014.6 hPa | - | - | - | - |
| 1777751088 | 13.33° C | 50% | 1014.7 hPa | - | - | - | - |
| 1777750188 | 13.89° C | 49% | 1014.5 hPa | - | - | - | - |
| 1777749287 | 14.44° C | 47% | 1014.5 hPa | - | - | - | - |
| 1777748387 | 15° C | 46% | 1014.3 hPa | - | - | - | - |
| 1777747487 | 15.56° C | 45% | 1014.3 hPa | - | - | - | - |
| 1777746587 | 16.67° C | 43% | 1014.3 hPa | - | - | - | - |
| 1777745737 | 18.33° C | 42% | 1014.3 hPa | - | - | - | - |
| 1777745687 | 18.33° C | 42% | 1014.3 hPa | - | - | - | - |
| 1777744786 | 19.44° C | 41% | 1014.5 hPa | - | - | - | - |
| 1777743886 | 20.56° C | 41% | 1014.6 hPa | - | - | - | - |
| 1777742986 | 20.56° C | 41% | 1014.7 hPa | - | - | - | - |
| 1777742086 | 21.11° C | 42% | 1014.8 hPa | - | - | - | - |
| 1777741185 | 21.67° C | 42% | 1014.9 hPa | - | - | - | - |
* Rain since midnight (hover to see other rain measurements)
** Current wind speed in m/s (hover to see current wind gust speed)